CW3468 Weather Reports


Display with metric or nautical units.
time (UTC)temp
F
wind
direction
speed
MPH
gust
MPH
rain 1hr
in
rain 24hr
in
rain mn
in
humidity
%
barometer
mb
20260506214627 68 319 3.0 11.0 0.00 0.00 0.00 73 1013.1
20260506213623 69 346 5.0 11.0 0.00 0.00 0.00 74 1013.0
20260506212625 70 313 5.0 13.0 0.00 0.00 0.00 73 1012.8
20260506211803 71 309 5.0 13.0 0.00 0.00 0.00 72 1012.8
20260506210627 72 5 4.0 10.0 0.00 0.00 0.00 72 1012.8
20260506205623 72 153 4.0 12.0 0.00 0.00 0.00 73 1012.8
20260506204619 72 280 3.0 11.0 0.00 0.00 0.00 74 1012.6
20260506203616 73 318 4.0 12.0 0.00 0.00 0.00 73 1013.0
20260506202615 74 27 3.0 13.0 0.00 0.00 0.00 73 1013.2
20260506201652 74 349 5.0 14.0 0.00 0.00 0.00 74 1013.2
20260506200628 73 327 6.0 14.0 0.00 0.00 0.00 75 1013.0
20260506195624 73 13 4.0 13.0 0.00 0.00 0.00 77 1012.8
20260506194621 74 321 4.0 12.0 0.00 0.00 0.00 75 1012.6
20260506193617 76 29 6.0 11.0 0.00 0.00 0.00 74 1012.4
20260506192614 79 325 3.0 10.0 0.00 0.00 0.00 73 1012.3
20260506191611 79 57 2.0 8.0 0.00 0.00 0.00 73 1012.3
20260506190629 80 5 2.0 8.0 0.00 0.00 0.00 72 1012.5
20260506185625 79 38 1.0 6.0 0.00 0.00 0.00 74 1012.8
20260506184639 79 310 1.0 4.0 0.00 0.00 0.00 72 1012.7
20260506183635 80 96 2.0 5.0 0.00 0.00 0.00 69 1012.6
20260506182630 78 26 1.0 4.0 0.00 0.00 0.00 74 1012.7
20260506181626 77 97 1.0 3.0 0.00 0.00 0.00 74 1012.8
20260506180621 77 52 0.0 8.0 0.00 0.00 0.00 72 1012.6
20260506175617 75 45 3.0 6.0 0.00 0.00 0.00 77 1012.7
20260506174613 74 115 1.0 8.0 0.00 0.00 0.00 77 1012.9
20260506173613 73 117 2.0 10.0 0.00 0.00 0.00 76 1012.8
20260506172629 72 47 1.0 8.0 0.00 0.00 0.00 79 1013.0
20260506171627 71 126 3.0 9.0 0.00 0.00 0.00 80 1013.0
20260506170623 71 52 1.0 7.0 0.00 0.00 0.00 81 1013.0
20260506165619 70 56 2.0 6.0 0.00 0.00 0.00 81 1013.1
20260506164615 68 28 2.0 7.0 0.00 0.00 0.00 84 1013.4
20260506163631 67 40 2.0 14.0 0.00 0.00 0.00 86 1013.3
20260506162628 67 126 3.0 11.0 0.00 0.00 0.00 85 1013.7
20260506161624 70 319 6.0 14.0 0.00 0.00 0.00 82 1013.9
20260506160620 74 43 5.0 11.0 0.00 0.00 0.00 79 1013.8
20260506155616 77 88 0.0 2.0 0.00 0.00 0.00 87 1013.2
20260506154614 76 323 0.0 3.0 0.00 0.00 0.00 87 1013.2
20260506153631 76 95 0.0 0.0 0.00 0.00 0.00 88 1013.1
20260506152627 76 53 0.0 0.0 0.00 0.00 0.00 88 1012.8
20260506151623 76 65 0.0 3.0 0.00 0.00 0.00 88 1012.5
20260506150619 76 94 1.0 3.0 0.00 0.00 0.00 88 1012.3
20260506145617 76 131 0.0 2.0 0.00 0.00 0.00 88 1011.9
20260506144617 76 146 0.0 2.0 0.00 0.00 0.00 88 1011.8
20260506143614 76 109 1.0 4.0 0.00 0.00 0.00 88 1011.9
20260506142653 76 119 1.0 3.0 0.00 0.00 0.00 89 1011.4
20260506141647 75 153 0.0 2.0 0.00 0.00 0.00 90 1011.4
20260506140618 75 98 0.0 1.0 0.00 0.00 0.00 90 1011.9
20260506135636 75 148 0.0 4.0 0.00 0.00 0.00 91 1011.7
20260506134613 75 130 2.0 6.0 0.00 0.00 0.00 91 1010.9
20260506133631 75 113 0.0 2.0 0.00 0.00 0.00 92 1011.0
20260506132628 74 142 0.0 4.0 0.00 0.00 0.00 92 1010.9
20260506131627 74 94 0.0 2.0 0.00 0.00 0.00 92 1010.9
20260506130623 74 114 0.0 3.0 0.00 0.00 0.00 92 1010.8
20260506125621 74 116 0.0 2.0 0.00 0.00 0.00 92 1010.7
20260506124616 74 128 1.0 3.0 0.00 0.00 0.00 92 1010.6
20260506123613 74 132 1.0 2.0 0.00 0.00 0.00 92 1010.7
20260506122650 74 111 0.0 0.0 0.00 0.00 0.00 92 1010.7
20260506121626 74 128 0.0 0.0 0.00 0.00 0.00 92 1010.7
20260506120624 74 136 0.0 0.0 0.00 0.00 0.00 91 1010.7
20260506115621 74 121 0.0 0.0 0.00 0.00 0.00 91 1010.6
20260506114618 74 151 0.0 0.0 0.00 0.00 0.00 91 1010.5
20260506113612 74 149 0.0 0.0 0.00 0.00 0.00 91 1010.5
20260506112631 74 168 0.0 2.0 0.00 0.00 0.00 91 1010.5
20260506111627 74 161 1.0 3.0 0.00 0.00 0.00 91 1010.5
20260506110628 74 138 0.0 2.0 0.00 0.00 0.00 90 1010.4
20260506105643 74 173 0.0 2.0 0.00 0.00 0.00 90 1010.3
20260506104617 74 181 0.0 2.0 0.00 0.00 0.00 90 1010.2
20260506103613 74 219 0.0 2.0 0.00 0.00 0.00 90 1010.1
20260506102651 74 227 1.0 3.0 0.00 0.00 0.00 90 1009.9
20260506101627 74 241 1.0 6.0 0.00 0.00 0.00 90 1009.8
20260506100643 74 201 1.0 4.0 0.00 0.00 0.00 90 1009.8
20260506095638 75 179 1.0 4.0 0.00 0.00 0.00 90 1009.8
20260506094615 75 198 1.0 4.0 0.00 0.00 0.00 90 1009.7
20260506093612 75 204 2.0 5.0 0.00 0.00 0.00 90 1009.6
20260506092628 75 238 1.0 4.0 0.00 0.00 0.00 90 1009.5
20260506091645 75 173 1.0 5.0 0.00 0.00 0.00 90 1009.4
20260506090620 75 213 1.0 5.0 0.00 0.00 0.00 90 1009.3
20260506085638 75 171 2.0 6.0 0.00 0.00 0.00 89 1009.4
20260506084633 75 181 2.0 5.0 0.00 0.00 0.00 90 1009.2
20260506083631 75 209 1.0 5.0 0.00 0.00 0.00 89 1009.3
20260506082628 75 161 2.0 5.0 0.00 0.00 0.00 89 1009.4
20260506081624 75 190 2.0 5.0 0.00 0.00 0.00 89 1009.3
20260506080622 75 149 1.0 7.0 0.00 0.00 0.00 89 1009.3
20260506072650 75 178 1.0 5.0 0.00 0.00 0.00 89 1009.8
20260506071647 75 192 2.0 5.0 0.00 0.00 0.00 89 1009.9
20260506070623 75 234 2.0 5.0 0.00 0.00 0.00 88 1010.0
20260506061651 75 186 1.0 7.0 0.00 0.00 0.00 88 1009.9
20260506060624 75 165 3.0 5.0 0.00 0.00 0.00 88 1009.9
20260506050620 76 205 1.0 4.0 0.00 0.00 0.00 86 1010.0
20260506044612 76 229 3.0 8.0 0.00 0.00 0.00 86 1010.0
20260506043630 76 145 2.0 7.0 0.00 0.00 0.00 86 1010.0
20260506042627 76 225 2.0 8.0 0.00 0.00 0.00 86 1010.0
20260506041624 77 180 2.0 4.0 0.00 0.00 0.00 86 1009.9
20260506040620 77 204 2.0 5.0 0.00 0.00 0.00 85 1009.8
20260506035616 77 205 1.0 6.0 0.00 0.00 0.00 85 1009.6
20260506034614 77 184 3.0 8.0 0.00 0.00 0.00 85 1009.6
20260506033611 77 207 2.0 9.0 0.00 0.00 0.00 85 1009.4
20260506032629 77 154 3.0 6.0 0.00 0.00 0.00 85 1009.3
20260506031624 78 131 2.0 6.0 0.00 0.00 0.00 85 1009.2
20260506030625 78 207 0.0 4.0 0.00 0.00 0.00 84 1009.1
20260506025622 78 148 2.0 6.0 0.00 0.00 0.00 83 1009.0
20260506024616 78 171 1.0 6.0 0.00 0.00 0.00 83 1008.8
20260506023611 78 161 2.0 5.0 0.00 0.00 0.00 82 1008.7
20260506022628 78 153 0.0 6.0 0.00 0.00 0.00 82 1008.5
20260506021624 78 148 2.0 4.0 0.00 0.00 0.00 81 1008.2
20260506020642 79 139 1.0 4.0 0.00 0.00 0.00 81 1008.1
20260506015616 79 165 1.0 4.0 0.00 0.00 0.00 80 1008.0
20260506014612 79 160 1.0 5.0 0.00 0.00 0.00 79 1007.9
20260506013631 80 146 1.0 6.0 0.00 0.00 0.00 79 1007.8
20260506012628 80 146 1.0 2.0 0.00 0.00 0.00 78 1007.8
20260506011626 81 168 0.0 0.0 0.00 0.00 0.00 77 1007.9
20260506010622 81 171 0.0 4.0 0.00 0.00 0.00 76 1007.9
20260506005640 81 139 0.0 2.0 0.00 0.00 0.00 76 1007.8
20260506004616 82 142 0.0 2.0 0.00 0.00 0.00 75 1007.8
20260506003653 82 192 1.0 3.0 0.00 0.00 0.00 75 1007.5
20260506002646 82 143 0.0 3.0 0.00 0.00 0.00 74 1007.6
20260506001642 83 190 1.0 3.0 0.00 0.00 0.00 73 1007.6
20260506000619 83 138 0.0 2.0 0.00 0.00 0.00 73 1007.5
20260505235615 83 191 1.0 6.0 0.00 0.00 0.00 72 1007.4
20260505234631 83 144 1.0 5.0 0.00 0.00 0.00 71 1007.3
20260505233612 83 202 1.0 4.0 0.00 0.00 0.00 72 1007.3
20260505232626 83 196 0.0 4.0 0.00 0.00 0.00 72 1007.3
20260505231642 84 192 2.0 5.0 0.00 0.00 0.00 70 1007.3
20260505230619 84 140 2.0 6.0 0.00 0.00 0.00 70 1007.3
20260505225612 83 148 2.0 4.0 0.00 0.00 0.00 71 1007.1
20260505224650 84 237 0.0 7.0 0.00 0.00 0.00 70 1007.2
20260505223626 84 196 3.0 11.0 0.00 0.00 0.00 69 1007.0
20260505222622 84 196 2.0 5.0 0.00 0.00 0.00 70 1007.1
20260505221617 84 104 2.0 8.0 0.00 0.00 0.00 69 1007.1
20260505220637 84 167 3.0 7.0 0.00 0.00 0.00 68 1007.2
20260505215633 85 134 4.0 8.0 0.00 0.00 0.00 69 1007.3